INMARSAT 3-F1

Last updated on Mon Sep 07 2026 00:02:56 GMT+0000 (Coordinated Universal Time)

1 23839U 96020A 26249.20000718 -.00000009 00000+0 00000+0 0 9991 2 23839 10.7667 45.8625 0006503 142.5631 50.3121 1.00000762111067
UTC large
Height (km)
Speed (km/s)
/
Latitude / Longitude
Inclination (degrees)
Orbital Period (minutes)
Azimuth
Elevation
Range (km)
Doppler Factor

Next 0 passes for location: London (51.5072 / 0.1276)

No passes found over London.
INMARSAT 3-F1